Regional Weather Roundup
Issued by NWS Charleston, SC

Home | Current Version | Previous Version | Text Only | Print | Product List | Glossary On
Versions: 1 2 3 4 5 6 7 8 9 10 11 12 13 14 15 16 17 18 19 20 21 22 23 24 25 26 27 28 29 30 31 32 33 34 35 36 37 38 39 40 41 42 43 44 45 46 47 48 49 50
000
ASUS42 KCHS 241527
RWRCHS

Regional Weather Roundup
National Weather Service Charleston SC
1100 AM EDT THU MAY 24 2018

NOTE: "fair" indicates few or no clouds below 12,000 feet with no
significant weather and/or obstructions to visibility.

Not all stations are quality controlled. Use data with caution,
especially dewpoint observations.

SCZ027-030-031-034>040-042>050-241600-
...Southeast South Carolina...

CITY           SKY/WX    TMP DP  RH WIND       PRES   REMARKS
N Charleston   PTSUNNY   85  72  65 VRB3      30.11S HX  91
Waterfront Prk   N/A     80  73  79 CALM      29.96R
Mount Pleasant FAIR      82  75  78 SE5       30.12S
Johns Island   PTSUNNY   81  75  83 S7        30.11F
Pinopolis        N/A     79  73  83 VRB2      30.06S
Moncks Corner  CLOUDY    75  70  83 E7        30.12S HAZE
Summerville    CLOUDY    81  72  74 CALM      30.13R
Beaufort MCAS  PTSUNNY   84  73  69 CALM      30.11S HX  90
Beaufort Arpt  FAIR      82  72  69 S6        30.10F
Hilton Head Is MOSUNNY   82  72  69 S7        30.12S
Walterboro     PTSUNNY   79  72  78 CALM      30.12S
Allendale      PTSUNNY   77  72  83 CALM      30.11S

...Southern Midlands and Pee Dee...

CITY           SKY/WX    TMP DP  RH WIND       PRES   REMARKS
Georgetown     FAIR      79  70  73 CALM      30.14S
Kingstree      PTSUNNY   81  73  78 CALM      30.13S
Orangeburg     FAIR      81  68  64 CALM      30.12S
Barnwell       CLOUDY    81  72  74 NE5       30.12S
Aiken          PTSUNNY   73  72  94 CALM      30.16S FOG
Manning        PTSUNNY   77  68  73 CALM      30.12S
Columbia       PTSUNNY   84  72  67 VRB5      30.11S
Sumter         PTSUNNY   80  70  71 NE6       30.11S
Florence       CLOUDY    81  71  71 NE6       30.14R
Myrtle Beach   CLOUDY    80  71  74 SE5       30.15S
N Myrtle Beach CLOUDY    81  70  69 NE7       30.13F

$$

GAZ063-065-086>088-099>101-113>116-118-119-134>141-150-241600-
...Southeast Georgia...

CITY           SKY/WX    TMP DP  RH WIND       PRES   REMARKS
Savannah Arpt  PTSUNNY   81  71  71 SW3       30.11S
Hunter AAF     FAIR      82  72  72 W3        30.08F
Fort Stewart   CLOUDY    82  71  68 S6        30.08F
Statesboro     CLOUDY    76  71  84 SW3       30.11S
Sylvania       CLOUDY    79  73  81 CALM      30.12S
Claxton          N/A     81  73  76 CALM      30.11R

...CSRA, Central and far Southeast Georgia...

CITY           SKY/WX    TMP DP  RH WIND       PRES   REMARKS
Thomson        CLOUDY    76  70  82 SE6       30.18R
Augusta-Bush   CLOUDY    74  71  91 NE5       30.11S
Augusta-Daniel CLOUDY    78  71  79 VRB5      30.13S
Swainsboro     CLOUDY    77  73  88 CALM      30.13R
Vidalia        FAIR      81  70  69 CALM      30.11S
Eastman        CLOUDY    78  65  66 CALM      30.14R
Hazlehurst       N/A     82  70  66 CALM      30.10S
Alma           FAIR      82  71  69 S5        30.10F
Waycross       PTSUNNY   82  73  72 S3        30.10S
Jesup          PTSUNNY   84  70  61 CALM      30.10S
Baxley         FAIR      79  77  94 CALM      30.10S
Brunswick      FAIR      81  70  69 CALM      30.11S
Saint Simons   FAIR      81  73  76 SE5       30.10F

$$

SCZ027-028-034-036>038-045-046-048>050-GAZ119-141-241600-
...Lake and Supplemental Coastal Observations...

STATION/POSITION TIME  TEMP    WIND        PRES    WAVE   SWELL
                       AIR SEA DIR/SP/G            HT/PER HT/PER/DIR
                 (UTC) (F)     (DEG/KT/KT) (MB)    (FT/S) (FT/S/D)
Winyah Bay       1445   81     350/  3     1020.0S
Lake Murray      1420   81     170/  3/  4 1019.0
ACE Basin NERRS  1445   83        CALM     1020.0S
Fort Pulaski     1500   81 78   CALM  /  1 1019.9
Sapelo Island    1500   79     250/  3     1019.0

$$

ANZ835-935-AMZ111-154-330-350-352-354-370-450-454-472-241600-
...C-MAN and Buoy Observations...

STATION/POSITION TIME  TEMP    WIND        PRES    WAVE   SWELL
                       AIR SEA DIR/SP/G            HT/PER HT/PER/DIR
                 (UTC) (F)     (DEG/KT/KT) (MB)    (FT/S) (FT/S/D)
Buoy 41004       1500      75  200/  2/  4 1020.5
Buoy 41008       1450   76 77  180/  6/  6 1019.4S   2/ 8   2/100/ 8
Folly Beach CMAN 1500   79     180/  9/ 10 1020.5S
Capers Nearshore 1508   77 78  190/  6/  8 1021.1R
Fripp Nearshore  1508   77 79  210/  8/ 10 1019.4F


STATION/POSITION TIME  TEMP    WIND        PRES    WAVE   SWELL
                       AIR SEA DIR/SP/G            HT/PER HT/PER/DIR
                 (UTC) (F)     (DEG/KT/KT) (MB)    (FT/S) (FT/S/D)
5E St. Marys GA  1500      77                N/A     2/ 9
Frying Pan Buoy  1510   76 76  280/  6/  6 1021.0
Buoy 41025       1510   73 75   30/  8/ 10 1021.4
Cape Lookout NC  1500           50/  7/  9 1021.4R
Buoy 41002       1510      78  270/  6/  8 1020.9
Buoy 41010       1510   78 79  160/  6/ 10 1020.7
St Augustine FL  1500   77 78  140/  9/  9 1019.9S


$$



USA.gov is the U.S. government's official web portal to all federal, state and local government web resources and services.